Banquereau: Past 24 Hour Conditions

 

Port aux Basques

12:30 PM NDT 30 July 2014
This table is a summary of hourly weather conditions for the past 24 hours.
Date / Time
(NDT)
Wind(knots) Conditions Visibility(km) Pressure(kPa) Air tempC) Relative humidity(%) Dew pointC)
30 July 2014
12:30 ESE 6 Cloudy 0.5 102.1 18 99 18
11:30 ESE 4 Cloudy 0.5 102.0 18 100 18
10:30 E 5 Cloudy 0.3 102.0 18 100 18
9:30 E 5 Cloudy 0.2 101.9 18 100 18
8:30 E 8 Cloudy 0.2 101.9 18 100 18
7:30 E 7 Cloudy 0.2 101.9 18 99 18
6:30 calm Cloudy 3 101.9 19 100 19
5:30 calm Cloudy 5 101.8 18 100 18
4:30 calm Cloudy 0.5 101.7 18 100 18
3:30 ESE 3 Cloudy 0.3 101.7 18 100 18
2:30 E 5 Cloudy 0.2 101.7 18 100 18
1:30 ESE 7 Cloudy 0.2 101.7 18 99 18
0:30 ESE 7 Cloudy 0.3 101.7 18 99 18
29 July 2014
23:30 ESE 11 Cloudy 0.3 101.7 18 100 18
22:30 E 8 Cloudy 0.2 101.7 18 99 18
21:30 ESE 6 Cloudy 0.2 101.7 18 99 18
20:30 ESE 7 Light Rain 0.2 101.6 18 100 18
19:30 SE 7 Cloudy 0.3 101.6 18 99 18
18:30 SE 11 gust 16 Cloudy 3 101.5 19 98 19
17:30 SE 11 Cloudy 8 101.5 20 95 19
16:30 E 11 Light Rain 10 101.4 20 95 19
15:30 ESE 14 gust 20 Cloudy 13 101.5 20 93 18
14:30 ESE 12 gust 17 Cloudy 10 101.4 19 95 19
13:30 E 10 Cloudy 1 101.4 18 100 18
12:30 ESE 7 Cloudy 0.8 101.4 19 100 19
 
Map of Atlantic - Newfoundland marine weather areas Southwestern Grand Banks - 44138 Banquereau - 44139 Tail of the Bank - 44140 Nickerson Bank - 44251 Northeast Burgeo Bank - 44255 Blanc-Sablon Airport Cap Whittle Chevery Natashquan Airport Heath Point Miscou Island Grand Étang Ingonish Beach North Mountain St.Paul Island J.A. Douglas McCurdy Sydney Airport Charlottetown Airport East Point North Cape Argentia Bonavista Burgeo Cape Race Corner Brook Daniel's Harbour Englee Ferolle Point La Scie Port aux Basques Rocky Harbour Sagona Island St. Anthony Airport St. John's Int'l Airport St. Lawrence Stephenville Airport Twillingate Winterland Wreckhouse Cartwright Airport Mary's Harbour Grates Cove Pool's Island Marticot Island Long Pond Îles de la Madeleine Airport
Legend: buoyBuoy land stationLand Station